SCP
0 0 0 0 0 0 0 0 0 0 0 0 0 0 0 0 0 0 0 0 0 0 0 0 0 0 0 0 0 0 0 0 0 0 0 0 0 0 0 0 0 0 0
0 0 0 0 0 0 0 0 0 0 0 0 0 0 0 0 0 0 0 0 0 0 0 0 0 0 0 0 0 0 0 0 0 0 0 0 0 0 0 0 0 0 0
0 0 0 0 0 0 0 0 0 0 0 0 0 0 0 0 0 0 0 0 0 0 0 0 0 0 0 0 0 0 0 0 0 0 0 0 0 0 0 0 0 0 0
0 0 0 0 0 0 0 0 0 0 0 0 0 0 0 0 0 0 0 0 0 0 0 0 0 0 0 0 0 0 0 0 0 0 0 0 0 0 0 0 0 0 0
0 0 0 0 0 0 0 0 0 0 0 0 0 0 0 0 0 0 0 0 0 0 0 0 0 0 0 0 0 0 0 0 0 0 0 0 0 0 0 0 0 0 0
0 0 0 0 0 0 0 0 0 0 0 0 0 0 0 0 0 0 0 0 0 0 0 0 0 0 0 0 0 0 0 0 0 0 0 0 0 0 0 0 0 0 0
0 0 0 0 0 0 0 0 0 0 0 0 0 0 0 0 0 0 0 0 0 0 0 0 0 0 0 0 0 0 0 0 0 0 0 0 0 0 0 0 0 0 0
0 0 0 0 0 0 0 0 0 0 0 0 0 0 0 0 0 0 0 0 0 0 0 0 0 0 0 0 0 0 0 0 0 0 0 0 0 0 0 0 0 0 0
0 0 0 0 0 0 0 0 0 0 0 0 0 0 0 0 0 0 0 0 0 0 0 0 0 0 0 0 0 0 0 0 0 0 0 0 0 0 0 0 0 0 0
0 0 0 0 0 0 0 0 0 0 0 0 0 0 0 0 0 -0 0 0 0 0 0 0 0 0 0 0 0 0 0 0 0 0 0 0 0 0 0 0 0 0 0
0 0 0 0 0 0 0 0 0 0 0 0 0 0 0 0 0 0 0 0 0 0 0 0 0 0 -0 0 0 0 0 0 0 0 0 0 0 0 0 0 0 0 0
0 0 0 0 0 0 0 0 0 0 0 0 0 0 0 0 0 0 0 0 0 0 0 0 0 0 0 0 0 0 0 0 0 0 0 0 0 0 0 0 0 0 0
0 0 0 0 0 0 0 0 0 0 0 0 0 0 0 0 0 0 0 0 0 0 0 0 0 0 0 0 0 0 0 0 0 0 0 0 0 0 0 0 0 0 0
0 0 0 0 0 0 0 0 0 0 0 0 0 0 0 0 0 0 0 0 0 0 0 0 0 0 0 0 0 0 0 0 0 0 0 0 0 0 0 0 0 0 0
0 0 0 0 0 0 0 0 0 0 0 0 0 0 0 0 0 0 0 0 0 0 0 0 0 0 0 0 0 0 0 0 0 0 0 0 0 0 0 0 0 0 0
0 0 0 0 0 0 0 0 0 0 0 0 0 0 0 0 0 0 0 0 0 0 0 0 0 0 0 0 0 0 0 0 0 0 0 0 0 0 0 0 0 0 0
0 0 0 0 0 0 0 0 0 0 0 0 0 0 0 0 0 0 0 0 0 0 0 0 0 0 0 0 0 0 0 0 0 0 0 0 0 0 0 0 0 0 0
0 0 0 0 0 0 0 0 0 0 0 0 0 0 0 0 0 0 0 0 0 0 0 0 0 0 0 0 0 0 0 0 0 0 0 0 0 0 0 0 0 0 0
0 0 0 0 0 0 0 0 0 0 0 0 0 0 0 0 0 0 0 0 0 0 0 0 0 0 0 0 0 0 0 0 0 0 0 0 0 0 0 0 0 0 0
0 0 0 0 0 0 0 0 0 0 0 0 0 0 0 0 0 0 0 0 0 0 0 0 0 0 0 0 0 0 0 0 0 0 0 0 0 0 0 0 0 0 0
0 0 0 0 0 0 0 0 0 0 0 0 0 0 0 0 0 0 0 0 0 0 0 0 0 0 0 0 0 0 0 0 0 0 0 0 0 0 0 0 0 0 0
0 0 0 0 0 0 0 0 0 0 0 0 0 0 0 0 0 0 0 0 0 0 0 0 0 0 0 0 0 0 0 0 0 0 0 0 0 0 0 0 0 0 0
0 0 0 0 0 0 0 0 0 0 0 0 0 0 0 0 0 0 0 0 0 0 0 0 0 0 0 0 0 0 0 0 0 0 0 0 0 0 0 0 0 0 0
0 0 0 0 0 0 0 0 0 0 0 0 0 0 0 0 0 0 0 0 0 0 0 0 0 0 0 0 0 0 0 0 0 0 0 0 0 0 0 0 0 0 0
0 0 0 0 0 0 0 0 0 0 0 0 0 0 0 0 0 0 0 0 0 0 0 0 0 0 0 0 0 0 0 0 0 0 0 0 0 0 0 0 0 0 0
0 0 0 0 0 0 0 0 0 0 0 0 0 0 0 0 0 0 0 0 0 0 0 0 0 0 0 0 0 0 0 0 0 0 0 0 0 0 0 0 0 0 0
Wind_Speed
5 5 6 5 5 5 5 5 5 5 6 6 6 6 6 6 5 4 5 4 4 4 4 4 4 3 2 2 3 3 3 4 6 5 4 6 5 5 5 4 5 5 7
5 5 5 5 6 6 6 6 6 6 6 6 6 7 7 7 6 6 6 6 6 6 6 5 5 4 5 4 3 4 4 4 7 9 7 6 6 6 5 4 5 4 5
4 5 6 6 6 6 6 6 6 6 6 6 7 7 7 7 7 7 7 7 7 7 7 6 6 6 6 5 5 5 4 5 6 8 8 6 5 5 6 5 5 3 4
5 5 6 6 5 6 6 6 6 6 7 7 7 7 7 7 7 7 7 8 8 8 8 8 7 7 7 6 5 6 6 7 7 7 7 6 6 6 4 4 5 4 3
4 5 5 5 5 5 6 6 6 6 7 6 7 8 8 7 8 8 7 8 8 8 9 10 10 10 10 7 5 6 6 6 6 6 6 6 6 5 4 3 3 4 4
5 5 5 5 5 6 5 6 6 6 6 7 8 8 9 8 9 10 7 8 8 8 9 9 10 10 11 11 11 10 7 5 5 5 5 5 5 4 3 3 3 3 4
4 4 5 5 5 5 6 6 6 6 7 7 8 9 9 9 10 10 9 7 8 8 8 7 8 8 8 9 10 9 10 8 5 3 5 4 5 4 3 3 2 1 1
5 5 5 5 5 5 6 6 5 5 6 7 7 8 8 9 9 9 7 7 9 8 8 8 8 8 8 6 7 8 8 7 4 3 4 3 4 3 2 1 2 2 3
5 5 5 5 5 6 6 6 5 5 6 7 7 8 9 9 10 9 6 6 7 9 9 9 8 8 8 6 5 7 7 6 7 8 7 6 6 3 2 2 2 2 2
5 5 5 5 5 6 6 5 5 5 6 6 8 8 9 9 9 10 8 4 6 6 7 8 11 8 7 6 4 6 7 6 5 6 5 5 4 4 2 3 2 1 1
5 6 6 5 5 6 5 4 4 5 6 7 7 7 8 8 8 10 11 5 5 5 5 6 8 8 8 7 5 6 5 2 3 4 4 4 4 4 3 2 1 2 3
6 6 6 5 5 5 5 4 4 5 6 6 6 6 6 6 8 8 9 9 7 5 5 6 7 6 6 6 5 5 3 4 1 2 3 3 3 2 2 1 1 2 3
6 7 6 6 5 5 5 5 4 4 4 4 4 5 5 5 6 4 4 5 5 4 6 7 4 1 1 4 4 2 4 1 2 2 2 3 3 3 1 1 2 2 4
7 7 6 5 6 6 4 4 4 4 4 4 4 4 4 4 4 3 3 3 4 4 4 5 3 1 1 3 3 1 1 4 3 3 3 2 1 0 1 1 1 2 2
6 6 6 6 6 5 6 6 6 7 7 5 4 4 4 5 7 7 6 5 5 5 2 1 2 2 2 2 2 2 2 2 1 2 1 1 1 1 1 1 2 3 3
6 5 5 5 4 4 5 6 8 6 6 6 6 6 6 6 4 3 3 3 3 4 4 1 2 1 2 2 1 1 1 2 2 1 1 1 2 2 2 1 2 3 3
5 5 4 4 4 4 3 4 5 5 3 2 2 3 4 3 2 2 1 3 4 6 3 2 2 1 1 1 1 1 2 2 2 2 1 2 2 2 2 2 2 3 3
6 5 3 4 3 3 3 3 3 4 5 5 5 3 2 1 1 2 3 5 4 4 0 2 1 1 1 1 1 1 1 1 1 1 2 2 2 2 3 3 2 4 4
5 4 3 3 3 3 3 3 3 3 3 3 5 7 6 6 6 5 6 4 1 1 2 1 1 1 1 1 1 1 2 2 2 2 2 2 2 3 3 4 3 2 5
4 4 0 2 3 3 2 2 2 2 2 2 2 3 4 5 4 4 4 1 0 1 1 1 1 1 1 1 1 1 1 2 2 3 2 2 3 3 4 5 5 5 5
6 6 5 3 2 2 2 2 2 1 1 1 2 4 3 2 0 0 0 0 1 1 1 2 1 1 1 2 2 2 2 2 2 3 2 3 3 4 4 5 5 6 6
4 5 4 2 3 2 1 1 1 1 1 1 2 6 6 5 1 1 0 0 1 1 1 2 3 2 2 2 2 2 3 3 3 3 3 4 4 5 5 5 5 5 6
4 4 3 3 2 3 3 2 1 0 0 0 0 1 3 2 1 1 1 1 1 2 2 2 3 3 2 2 3 3 4 3 3 3 4 5 5 5 5 6 7 7 7
5 4 3 3 3 3 2 1 1 1 1 0 1 1 1 1 2 2 2 2 2 2 3 3 3 3 4 4 4 4 2 2 4 4 6 6 7 6 6 6 7 8 7
5 4 4 3 3 2 2 2 1 1 1 1 1 2 2 2 2 2 3 3 3 4 4 4 4 4 6 7 7 3 3 2 3 6 6 7 8 8 8 8 8 8 8
5 4 4 3 2 2 2 2 2 2 2 2 2 2 3 3 3 3 3 3 4 4 5 5 5 6 7 7 6 3 5 5 5 5 7 8 8 8 8 8 10 9 10
Wind_Direction
52 53 54 53 50 52 53 49 45 46 45 45 44 44 43 40 42 50 56 55 58 62 60 71 75 75 93 106 119 130 134 131 131 129 129 134 138 140 137 146 147 162 147
60 61 58 59 56 54 52 49 49 51 50 49 49 49 46 45 45 50 54 53 56 60 62 68 77 88 90 88 97 106 115 128 139 135 138 142 144 144 144 160 157 159 141
70 71 65 60 60 59 56 53 51 55 55 53 57 57 52 50 51 54 57 58 57 58 60 66 76 86 86 89 92 99 109 120 128 136 138 138 145 150 156 159 152 155 161
68 70 67 61 60 60 59 59 56 56 58 57 56 56 54 51 51 56 62 62 62 61 63 66 68 73 82 90 95 99 107 115 123 132 135 141 144 154 167 161 158 171 177
76 73 68 66 61 60 59 58 58 58 61 63 62 61 58 55 44 43 62 67 66 67 66 68 68 71 66 65 79 93 108 118 126 129 136 144 146 157 166 171 164 167 165
77 73 69 68 64 61 63 65 66 66 67 69 65 63 62 55 36 31 37 70 69 69 70 73 80 79 79 79 74 71 73 94 108 122 132 130 134 145 146 169 170 173 163
84 76 72 74 72 69 72 72 71 73 76 75 73 68 65 55 43 38 32 60 68 64 63 65 72 77 81 89 93 95 82 73 74 86 111 119 133 131 152 160 142 149 98
88 80 75 76 79 79 76 75 73 75 76 76 74 74 74 59 42 38 30 69 71 69 66 66 69 68 60 59 84 89 88 77 69 87 95 97 101 114 143 133 138 171 179
89 84 77 75 80 78 74 74 77 79 78 79 76 74 75 68 40 23 11 77 77 73 68 62 63 68 41 23 84 98 97 97 85 72 65 72 64 52 346 242 204 219 176
94 91 83 79 79 78 77 78 82 86 84 80 74 69 69 66 42 21 1 69 77 83 86 85 69 55 34 15 71 90 95 96 105 116 122 144 148 146 219 267 293 311 329
98 94 84 78 82 80 81 78 81 86 86 82 82 77 69 60 58 36 18 36 57 70 78 79 70 46 38 24 25 67 67 50 124 133 137 139 146 155 175 191 331 327 336
103 99 91 81 78 85 87 84 86 95 102 98 95 91 86 75 56 51 38 32 13 58 63 66 71 51 46 37 47 47 335 286 153 122 116 119 121 107 92 62 16 331 318
109 103 96 87 78 78 87 93 97 92 89 93 95 92 90 92 99 95 69 43 20 42 63 64 63 71 145 103 85 331 284 280 62 77 78 73 70 66 64 188 206 229 245
115 111 109 101 95 84 73 71 73 71 75 80 77 81 89 93 78 79 101 122 146 132 112 128 167 192 128 98 162 194 47 41 21 41 51 58 64 123 263 326 299 266 262
116 113 110 101 92 90 72 45 38 54 34 22 42 62 68 73 52 20 359 24 21 38 347 162 143 133 127 102 92 77 80 102 74 40 27 3 340 335 343 347 318 300 300
130 127 118 111 106 107 113 105 62 54 65 49 26 16 65 66 62 32 24 10 340 317 296 106 92 80 74 74 68 82 88 62 32 5 344 333 334 331 327 318 297 299 305
124 121 119 114 118 111 107 111 119 120 113 88 63 36 34 45 32 0 330 299 275 276 258 89 79 68 56 46 28 25 38 51 360 327 332 321 310 310 311 318 322 319 316
132 125 136 127 118 115 114 116 114 123 137 143 156 174 188 206 241 262 269 265 221 219 68 63 67 54 32 10 13 16 -0 358 323 327 330 313 308 306 306 308 316 328 318
140 132 124 114 127 121 125 126 112 104 105 119 135 150 185 202 211 235 249 255 9 46 43 46 36 12 5 354 348 342 325 324 332 311 302 297 300 298 305 307 312 320 289
122 78 189 152 139 134 136 131 122 121 117 108 112 116 157 197 196 177 199 214 326 30 8 6 13 351 326 314 302 291 283 281 272 263 276 287 291 296 299 299 308 306 298
147 145 197 216 146 128 122 116 113 123 112 109 93 77 358 291 319 54 315 295 319 345 350 332 307 273 267 272 284 310 308 296 289 292 287 284 291 294 296 295 295 295 300
162 160 171 142 129 127 104 157 170 161 140 146 142 148 183 247 274 303 301 286 280 278 288 293 297 303 306 296 299 278 274 278 286 292 291 285 279 280 284 289 295 299 298
183 169 162 157 157 152 217 208 189 225 240 269 262 152 180 226 273 272 280 275 272 278 273 259 268 276 274 269 276 280 285 295 301 301 290 284 282 280 280 285 289 290 292
181 188 186 174 189 205 210 207 219 259 292 303 298 300 292 255 273 284 278 268 262 258 257 258 268 281 276 265 258 252 257 305 298 279 280 285 285 284 283 282 283 286 287
190 193 198 191 203 221 227 243 254 265 271 276 274 276 273 264 260 254 255 255 254 255 258 258 254 254 255 256 259 270 101 136 267 293 279 272 273 277 279 281 282 284 284
199 202 212 208 206 232 245 251 259 274 278 276 274 277 282 278 271 270 265 262 261 255 254 255 253 256 256 251 248 217 174 197 219 245 272 273 271 272 278 279 279 278 277